Wind_Speed
11 9 12 14 14 17 18 17 17 18 17 15 14 14 16 14 11 13 15 17 18 14 19 17 13 13 14 18 16 5 16 9 7 11 16 10 14 14 8 12 10 15 12 10 12
15 16 18 17 18 21 22 23 22 22 22 21 18 16 16 15 17 16 15 17 19 16 16 21 19 15 18 15 5 18 17 11 7 9 4 11 2 13 10 12 8 12 13 10 11
17 18 20 23 23 22 21 26 26 25 24 26 23 21 18 17 17 22 18 17 18 19 17 20 22 17 15 13 16 15 17 13 13 14 10 11 8 12 7 7 8 13 13 11 10
17 19 21 21 22 23 22 23 27 29 28 26 28 25 23 20 20 19 23 22 19 18 20 17 22 23 20 17 13 24 19 14 21 14 15 12 6 6 6 11 9 11 9 8 11
17 17 19 18 20 21 20 21 21 26 30 30 28 28 26 25 24 20 21 24 25 22 19 20 19 26 22 21 19 25 23 19 11 6 9 10 10 13 9 8 7 7 6 5 8
17 17 18 18 19 20 20 19 19 18 24 33 31 30 29 30 26 23 23 23 25 27 25 18 21 26 30 28 24 19 22 20 15 15 10 11 5 5 4 4 5 8 5 3 5
19 19 18 18 19 18 18 19 20 19 17 23 35 32 31 33 28 24 27 26 25 27 29 27 26 26 29 30 34 30 16 19 19 15 15 10 11 10 9 6 7 6 5 4 5
21 21 20 20 20 18 18 18 18 20 19 19 22 33 34 32 32 29 29 30 28 27 30 33 29 27 28 28 31 28 22 14 19 16 13 10 9 11 7 6 4 4 6 7 4
23 22 21 20 20 18 19 19 20 20 20 20 19 26 32 32 32 31 30 29 29 29 28 32 33 28 29 28 25 26 16 21 14 15 9 6 11 5 7 5 3 6 4 8 7
24 23 21 19 20 18 18 17 18 18 17 18 16 20 29 29 30 30 34 32 29 29 30 31 31 33 29 28 19 18 23 19 13 3 3 7 7 6 6 9 4 6 1 7 10
24 22 20 20 19 18 17 16 17 18 16 16 14 17 23 26 30 29 32 35 35 32 32 30 30 32 30 23 23 24 26 21 22 25 19 9 8 7 11 11 5 7 4 7 8
23 23 20 20 19 18 17 16 15 17 14 16 14 13 21 26 29 32 30 34 35 34 34 31 29 29 33 32 28 27 26 28 28 19 17 23 17 20 17 13 3 6 5 7 8
25 23 22 20 19 18 16 17 15 16 15 16 17 14 16 21 27 32 32 33 36 37 36 32 30 32 33 36 34 31 29 31 27 25 21 26 25 26 17 17 9 12 9 3 3
26 23 22 21 19 19 17 16 16 14 16 16 17 18 21 20 23 26 31 34 33 35 37 36 36 36 35 36 37 34 30 38 27 27 23 26 23 28 22 21 9 8 14 9 3
27 25 21 21 19 18 17 16 15 16 15 13 15 17 20 23 22 23 24 31 33 35 39 37 39 39 38 36 39 33 40 38 29 25 28 24 22 19 31 27 12 15 15 12 3
25 23 20 20 18 16 15 16 15 17 15 12 14 15 15 18 21 23 21 25 30 33 37 39 42 42 40 38 39 42 42 43 38 32 31 22 23 22 34 16 14 8 6 15 11
19 19 19 20 18 15 14 14 17 16 17 17 13 9 12 16 21 22 22 22 24 28 33 35 38 43 43 43 43 44 47 49 45 43 40 29 31 25 18 18 9 12 9 12 20
21 18 19 18 18 14 13 16 18 17 19 17 13 5 7 11 16 22 23 20 21 22 25 33 35 38 43 47 47 44 50 52 51 47 40 33 33 12 19 17 14 7 10 8 12
20 18 17 17 17 15 14 18 18 16 18 16 15 13 13 19 17 13 11 17 21 25 23 29 33 38 43 48 49 48 46 50 53 50 44 39 29 18 19 14 14 6 6 9 13
18 18 18 16 16 15 17 22 17 15 15 16 18 21 19 18 24 20 20 20 24 26 26 27 27 36 45 47 46 45 44 48 52 53 50 42 37 26 20 16 14 15 16 16 14
19 16 16 15 17 15 20 21 20 13 18 22 24 26 27 19 27 31 27 27 26 24 25 26 25 35 46 48 46 45 41 47 43 52 48 38 37 33 26 27 23 20 17 23 15
15 14 15 16 18 20 22 21 24 15 18 24 22 22 24 27 27 30 32 34 30 32 30 29 29 35 45 39 38 49 49 40 44 46 48 31 30 30 27 29 28 27 27 25 18
14 14 15 17 20 17 19 22 22 24 16 18 22 23 22 25 28 31 36 39 37 34 31 31 29 36 39 39 37 39 39 46 39 44 43 39 32 19 25 24 24 29 29 23 11
17 13 14 15 17 15 19 23 23 19 20 20 24 23 27 28 29 31 33 30 31 30 28 29 29 33 43 41 35 39 38 47 44 43 47 44 33 25 23 17 27 30 37 30 21
16 13 14 13 14 17 19 25 26 16 18 15 20 22 20 23 29 31 33 35 35 34 31 31 29 33 39 47 36 35 40 46 48 47 52 44 37 29 27 29 26 35 33 22 27
15 15 17 13 20 22 19 22 24 21 17 18 17 20 21 21 24 27 30 34 39 37 35 37 34 29 32 49 39 37 39 41 49 49 48 51 34 37 33 35 29 24 17 31 30
15 15 16 18 22 18 16 16 20 20 20 21 20 20 22 22 24 28 31 34 38 38 40 39 37 35 32 41 44 37 37 40 47 51 51 53 39 39 39 33 30 21 22 21 27
Wind_Direction
293 287 295 293 292 294 279 268 262 263 261 254 247 245 242 228 226 223 218 218 224 219 210 212 184 192 167 157 157 215 165 148 132 104 102 113 71 50 41 81 90 100 97 103 104
288 287 300 299 293 296 279 268 261 254 252 253 249 241 241 235 219 226 213 219 222 219 208 210 201 195 165 177 187 161 166 160 161 126 136 99 29 89 86 73 98 106 105 106 102
299 302 304 309 309 305 282 265 258 254 250 249 245 243 235 235 225 223 220 222 223 224 211 214 211 208 181 168 157 161 152 154 142 145 127 136 41 101 64 40 99 113 104 115 112
307 305 310 314 312 309 293 274 260 253 250 245 248 240 238 231 231 223 220 219 223 224 220 208 210 219 202 185 185 147 145 120 137 143 157 165 83 61 85 94 92 69 94 115 124
305 308 310 313 312 309 303 291 276 259 248 244 241 242 236 231 230 220 218 220 218 222 222 210 207 214 207 207 184 177 159 152 125 182 178 164 124 106 102 74 67 84 85 104 130
307 311 313 315 316 311 303 296 289 291 264 246 238 234 237 232 227 223 222 217 218 218 219 215 201 213 214 205 203 195 183 173 178 194 171 174 106 76 96 50 66 85 93 105 112
314 315 315 313 311 307 300 294 294 302 288 262 242 235 230 233 224 222 225 217 215 216 214 213 209 208 221 206 211 203 188 165 154 182 182 165 151 156 118 61 34 41 108 138 129
313 316 317 310 306 303 297 291 295 298 300 276 256 237 231 231 223 213 225 220 213 215 215 214 212 208 221 218 218 209 213 178 170 196 188 161 187 202 132 53 355 37 98 131 159
321 316 316 310 305 304 296 292 292 297 291 291 263 238 228 225 224 216 216 223 216 214 216 216 216 209 214 223 215 215 201 170 190 205 184 193 214 180 233 284 324 338 91 117 141
319 316 315 308 304 301 297 294 291 291 291 284 266 234 224 225 228 224 218 218 218 214 216 218 216 215 213 220 216 208 204 207 202 198 265 236 217 198 225 247 296 305 79 116 142
315 315 311 306 300 295 295 294 292 291 277 274 260 230 218 222 225 225 223 220 220 217 219 216 218 219 213 213 210 199 199 199 188 178 207 214 234 202 247 231 183 241 207 135 128
319 317 312 305 299 292 289 289 285 290 276 265 256 240 225 220 224 223 222 224 222 223 223 218 214 215 214 204 203 201 192 180 183 193 228 215 231 251 231 220 194 212 207 147 134
314 312 310 305 298 291 286 289 280 280 274 264 262 255 239 228 225 220 219 222 223 224 226 219 209 213 214 210 199 195 191 190 188 198 209 222 223 244 233 232 227 222 257 129 173
308 309 306 303 296 290 283 280 281 279 272 270 266 263 253 236 233 223 218 218 220 222 224 220 214 210 212 209 207 197 182 195 200 207 212 212 218 231 244 248 244 250 248 271 153
303 302 298 297 290 288 285 278 279 277 271 264 264 253 246 243 236 224 223 220 218 220 221 220 217 213 210 210 206 192 188 187 197 211 215 223 230 229 236 233 232 244 204 224 210
303 297 295 294 287 285 282 276 275 272 263 246 251 251 245 246 234 235 228 222 222 218 219 222 218 212 210 211 209 193 195 196 201 202 223 224 236 237 226 222 234 266 264 230 210
307 296 293 294 284 281 278 272 268 270 273 273 264 263 249 243 240 235 225 230 226 220 219 217 221 215 208 208 212 198 196 203 204 208 212 215 225 214 206 222 229 201 234 237 219
299 290 289 288 281 274 270 259 258 268 269 269 272 289 247 260 238 236 225 218 230 223 218 219 211 212 204 208 214 209 197 203 207 212 216 221 224 194 196 194 247 247 205 209 183
291 287 287 285 275 261 254 249 257 264 261 252 240 247 261 217 223 218 243 241 218 220 216 214 212 204 201 206 210 211 203 205 208 211 218 218 221 211 195 178 231 236 239 226 182
286 287 282 278 267 257 252 255 257 260 260 254 240 235 243 231 211 206 224 236 231 213 214 216 206 201 196 202 205 208 207 212 209 210 215 218 223 221 210 211 232 260 253 257 219
285 287 277 271 263 256 250 263 262 253 238 241 241 234 238 232 228 216 223 228 227 227 216 213 203 195 192 199 203 201 204 214 213 213 216 219 225 229 226 218 226 235 235 243 238
278 266 271 257 246 249 256 260 274 264 240 242 248 245 238 230 232 232 227 226 222 223 221 227 207 194 189 198 206 214 209 208 211 213 212 198 207 216 208 202 219 232 236 236 233
295 277 269 255 254 252 259 261 267 273 243 247 247 243 236 236 234 238 235 242 219 223 222 225 216 196 195 202 208 210 212 211 212 212 208 197 192 211 213 214 224 232 222 243 208
320 290 278 267 268 265 262 267 261 265 263 268 262 251 242 236 230 240 250 242 245 237 238 234 225 210 198 195 207 214 207 197 205 210 200 199 200 200 220 225 226 234 233 207 197
319 288 268 267 261 252 256 272 275 263 270 259 256 258 248 246 242 240 243 248 244 245 238 233 233 221 206 198 203 212 198 198 202 206 202 202 210 208 216 222 219 223 245 223 207
301 274 275 252 249 257 267 264 276 280 273 265 261 260 259 252 248 242 241 245 249 244 241 233 236 228 217 201 204 201 201 204 207 204 205 204 208 214 203 222 222 224 221 229 240
299 275 264 259 268 269 273 268 264 266 266 270 274 270 267 261 254 253 249 245 243 242 238 235 234 234 227 210 202 192 199 210 210 201 204 205 207 214 214 216 222 227 224 236 254
Height
5889 5888 5886 5885 5884 5883 5882 5882 5881 5881 5882 5883 5883 5884 5886 5889 5891 5892 5891 5892 5892 5896 5899 5900 5903 5908 5910 5909 5909 5912 5912 5911 5912 5910 5911 5912 5912 5915 5917 5914 5916 5916 5918 5919 5921
5885 5884 5883 5882 5880 5878 5877 5877 5876 5876 5876 5878 5880 5881 5882 5885 5888 5888 5891 5890 5890 5893 5897 5898 5901 5905 5909 5909 5909 5910 5911 5910 5912 5913 5913 5912 5914 5919 5918 5917 5918 5918 5919 5920 5922
5881 5879 5877 5875 5874 5872 5870 5869 5870 5870 5871 5872 5873 5876 5879 5881 5884 5885 5888 5889 5889 5890 5895 5897 5900 5904 5910 5911 5911 5910 5910 5912 5913 5914 5914 5914 5915 5918 5918 5920 5921 5920 5919 5922 5924
5877 5875 5873 5870 5868 5866 5864 5863 5862 5864 5865 5866 5868 5871 5874 5877 5880 5881 5884 5886 5887 5889 5891 5896 5898 5900 5905 5910 5911 5909 5911 5913 5915 5916 5914 5914 5916 5919 5919 5920 5921 5921 5922 5924 5926
5873 5870 5868 5865 5863 5860 5858 5857 5856 5856 5858 5860 5862 5865 5868 5871 5873 5877 5879 5882 5884 5886 5888 5893 5897 5899 5903 5904 5908 5909 5906 5913 5914 5914 5913 5914 5916 5918 5920 5919 5921 5921 5924 5925 5926
5869 5866 5863 5860 5857 5855 5853 5852 5851 5850 5850 5852 5855 5858 5863 5864 5868 5872 5874 5877 5880 5882 5885 5891 5895 5894 5896 5900 5906 5908 5904 5906 5911 5914 5915 5917 5917 5917 5920 5922 5923 5922 5923 5926 5927
5864 5862 5858 5855 5852 5850 5848 5847 5845 5844 5844 5844 5847 5851 5854 5857 5863 5868 5867 5872 5875 5878 5881 5885 5888 5892 5892 5899 5899 5907 5907 5905 5908 5912 5912 5913 5917 5921 5922 5924 5923 5922 5923 5926 5929
5860 5857 5854 5851 5848 5845 5843 5841 5840 5839 5838 5838 5840 5843 5846 5850 5856 5860 5861 5865 5870 5873 5875 5879 5884 5889 5891 5895 5900 5906 5910 5909 5909 5911 5911 5914 5918 5922 5924 5923 5923 5923 5923 5925 5928
5855 5852 5849 5846 5844 5841 5838 5836 5835 5834 5833 5833 5833 5834 5839 5843 5848 5854 5857 5860 5864 5868 5871 5873 5879 5885 5888 5891 5898 5903 5910 5910 5913 5911 5912 5913 5917 5919 5922 5925 5923 5922 5923 5923 5925
5850 5847 5844 5841 5839 5836 5833 5832 5830 5829 5829 5828 5827 5830 5833 5838 5842 5846 5850 5855 5858 5863 5866 5870 5875 5880 5885 5888 5896 5903 5907 5909 5913 5913 5911 5913 5914 5916 5922 5925 5923 5921 5924 5923 5924
5844 5841 5839 5836 5833 5831 5829 5828 5827 5825 5824 5824 5824 5824 5828 5832 5835 5839 5844 5848 5852 5857 5860 5866 5871 5875 5883 5888 5891 5896 5899 5904 5903 5901 5904 5908 5911 5915 5916 5918 5921 5922 5922 5923 5922
5839 5836 5833 5830 5828 5825 5823 5822 5821 5820 5820 5819 5819 5820 5822 5825 5829 5832 5838 5843 5847 5851 5854 5861 5868 5872 5876 5881 5887 5892 5897 5902 5902 5901 5901 5905 5906 5909 5912 5914 5919 5923 5921 5924 5922
5834 5830 5827 5824 5821 5819 5817 5817 5816 5815 5815 5815 5816 5818 5818 5821 5822 5826 5830 5834 5840 5844 5848 5856 5864 5865 5870 5875 5880 5886 5893 5897 5898 5897 5897 5900 5905 5904 5910 5912 5917 5921 5922 5924 5924
5826 5824 5821 5818 5816 5813 5812 5811 5810 5810 5809 5812 5812 5812 5812 5815 5818 5820 5822 5828 5833 5838 5842 5848 5853 5858 5864 5869 5877 5882 5891 5893 5894 5894 5899 5901 5903 5904 5906 5909 5914 5920 5922 5924 5924
5819 5816 5814 5811 5809 5807 5807 5805 5805 5805 5804 5807 5806 5806 5807 5810 5811 5813 5817 5820 5824 5828 5834 5843 5846 5852 5857 5866 5870 5882 5883 5887 5888 5889 5889 5892 5897 5903 5903 5905 5912 5916 5917 5919 5922
5810 5809 5807 5804 5803 5800 5800 5800 5799 5799 5798 5801 5801 5801 5802 5802 5804 5807 5811 5814 5816 5821 5827 5833 5838 5844 5853 5858 5864 5872 5877 5880 5882 5884 5884 5887 5893 5897 5899 5907 5910 5912 5912 5917 5920
5801 5800 5799 5797 5796 5794 5794 5795 5793 5794 5792 5791 5795 5798 5798 5797 5798 5800 5804 5807 5810 5814 5818 5823 5831 5838 5845 5851 5855 5861 5867 5872 5876 5878 5881 5887 5888 5896 5899 5900 5906 5910 5914 5916 5918
5794 5791 5790 5789 5789 5788 5788 5788 5787 5789 5787 5787 5788 5791 5793 5793 5794 5793 5798 5802 5804 5807 5810 5814 5823 5830 5837 5844 5849 5853 5859 5865 5869 5874 5881 5884 5885 5897 5897 5899 5901 5906 5911 5915 5916
5786 5784 5782 5782 5782 5782 5782 5781 5782 5784 5783 5785 5785 5786 5787 5786 5788 5790 5794 5795 5797 5801 5804 5807 5816 5821 5828 5834 5841 5846 5852 5859 5864 5870 5876 5878 5883 5889 5891 5894 5897 5901 5906 5910 5914
5780 5778 5777 5775 5775 5776 5775 5773 5777 5779 5779 5780 5781 5780 5782 5783 5785 5787 5789 5791 5792 5797 5800 5804 5811 5815 5822 5829 5834 5838 5847 5851 5856 5864 5867 5874 5880 5883 5887 5892 5894 5897 5901 5903 5909
5774 5769 5770 5768 5769 5769 5767 5767 5770 5773 5773 5774 5773 5775 5775 5780 5782 5782 5783 5785 5788 5792 5795 5799 5805 5810 5817 5822 5826 5830 5837 5842 5850 5856 5861 5871 5876 5877 5880 5885 5887 5891 5894 5898 5904
5765 5764 5763 5762 5765 5763 5763 5764 5760 5767 5768 5767 5768 5769 5771 5773 5775 5777 5778 5779 5781 5785 5789 5791 5797 5803 5809 5814 5818 5825 5831 5835 5841 5847 5855 5864 5869 5870 5874 5879 5884 5886 5890 5892 5897
5758 5758 5757 5757 5757 5758 5758 5757 5757 5756 5761 5761 5761 5762 5764 5767 5769 5769 5772 5774 5775 5778 5783 5786 5790 5797 5805 5810 5811 5817 5823 5829 5836 5843 5851 5857 5862 5864 5867 5872 5877 5882 5885 5887 5890
5754 5753 5752 5753 5753 5754 5752 5751 5751 5753 5753 5755 5752 5756 5757 5758 5761 5761 5762 5767 5770 5774 5778 5781 5786 5790 5796 5800 5805 5810 5817 5821 5826 5833 5844 5848 5855 5859 5863 5869 5871 5869 5877 5883 5885
5749 5748 5748 5749 5748 5747 5748 5744 5741 5748 5747 5748 5746 5747 5751 5753 5755 5756 5758 5759 5763 5767 5773 5775 5779 5782 5787 5795 5800 5803 5810 5814 5819 5825 5834 5843 5846 5853 5857 5860 5864 5869 5868 5870 5877
5743 5742 5741 5744 5741 5740 5743 5741 5738 5739 5742 5741 5741 5742 5744 5746 5747 5748 5749 5751 5753 5758 5763 5767 5772 5776 5782 5788 5791 5799 5807 5811 5809 5818 5826 5834 5837 5840 5848 5852 5858 5864 5866 5869 5870
5738 5738 5736 5736 5734 5736 5737 5737 5734 5734 5734 5734 5735 5735 5735 5736 5738 5738 5739 5741 5743 5747 5751 5756 5763 5769 5774 5779 5788 5797 5798 5799 5803 5810 5818 5825 5831 5837 5840 5845 5852 5857 5859 5862 5863